Time,TemperatureF,DewpointF,PressureIn,WindDirection,WindDirectionDegrees,WindSpeedMPH,WindSpeedGustMPH,Humidity,HourlyPrecipIn,Conditions,Clouds,dailyrainin,SoftwareType,DateUTC
2013-09-02 00:00:00,82.9,78.6,29.92,WSW,250,6.0,6.0,87,0.00,,,0.00,Wunderground v.1.15,2013-09-02 04:00:00,
2013-09-02 00:05:00,82.9,78.6,29.92,WSW,246,6.0,11.0,87,0.00,,,0.00,Wunderground v.1.15,2013-09-02 04:05:00,
2013-09-02 00:10:00,82.9,78.6,29.92,WSW,250,7.0,11.0,87,0.00,,,0.00,Wunderground v.1.15,2013-09-02 04:10:00,
2013-09-02 00:15:00,83.0,78.7,29.92,WSW,246,7.0,11.0,87,0.00,,,0.00,Wunderground v.1.15,2013-09-02 04:15:00,
2013-09-02 00:20:00,83.0,78.7,29.92,SW,235,7.0,11.0,87,0.00,,,0.00,Wunderground v.1.15,2013-09-02 04:20:00,
2013-09-02 00:25:00,83.0,78.7,29.92,West,260,7.0,11.0,87,0.00,,,0.00,Wunderground v.1.15,2013-09-02 04:25:00,
2013-09-02 00:30:00,83.0,78.7,29.92,SW,220,7.0,11.0,87,0.00,,,0.00,Wunderground v.1.15,2013-09-02 04:30:00,
2013-09-02 00:35:00,83.0,78.7,29.92,SW,216,8.0,11.0,87,0.00,,,0.00,Wunderground v.1.15,2013-09-02 04:35:00,
2013-09-02 00:40:00,83.0,78.7,29.92,WSW,244,8.0,8.0,87,0.00,,,0.00,Wunderground v.1.15,2013-09-02 04:40:00,
2013-09-02 00:50:00,83.1,78.8,29.92,SW,233,7.0,11.0,87,0.00,,,0.00,Wunderground v.1.15,2013-09-02 04:50:00,
2013-09-02 00:55:00,83.1,79.2,29.92,SW,221,7.0,11.0,88,0.00,,,0.00,Wunderground v.1.15,2013-09-02 04:55:00,
2013-09-02 01:00:00,83.1,78.8,29.92,SW,224,8.0,11.0,87,0.00,,,0.00,Wunderground v.1.15,2013-09-02 05:00:00,
2013-09-02 01:05:00,83.2,79.3,29.92,SW,217,8.0,11.0,88,0.00,,,0.00,Wunderground v.1.15,2013-09-02 05:05:00,
2013-09-02 01:10:00,83.2,79.3,29.92,SW,233,7.0,7.0,88,0.00,,,0.00,Wunderground v.1.15,2013-09-02 05:10:00,
2013-09-02 01:15:00,83.2,79.3,29.92,SSW,213,8.0,8.0,88,0.00,,,0.00,Wunderground v.1.15,2013-09-02 05:15:00,
2013-09-02 01:20:00,83.2,79.3,29.92,SW,214,9.0,11.0,88,0.00,,,0.00,Wunderground v.1.15,2013-09-02 05:20:00,
2013-09-02 01:30:00,83.1,79.2,29.92,SW,217,10.0,10.0,88,0.00,,,0.00,Wunderground v.1.15,2013-09-02 05:30:00,
2013-09-02 01:35:00,83.2,79.3,29.92,SW,221,10.0,12.0,88,0.00,,,0.00,Wunderground v.1.15,2013-09-02 05:35:00,
2013-09-02 01:40:00,83.2,79.3,29.92,WSW,253,9.0,9.0,88,0.00,,,0.00,Wunderground v.1.15,2013-09-02 05:40:00,
2013-09-02 01:45:00,83.2,79.3,29.92,SW,219,9.0,10.0,88,0.00,,,0.00,Wunderground v.1.15,2013-09-02 05:45:00,
2013-09-02 01:50:00,83.1,79.2,29.92,SSW,211,10.0,12.0,88,0.00,,,0.00,Wunderground v.1.15,2013-09-02 05:50:00,
2013-09-02 01:55:00,83.1,78.8,29.92,SSW,200,11.0,14.0,87,0.00,,,0.00,Wunderground v.1.15,2013-09-02 05:55:00,
2013-09-02 02:00:00,83.2,78.9,29.92,SW,223,10.0,11.0,87,0.00,,,0.00,Wunderground v.1.15,2013-09-02 06:00:00,
2013-09-02 02:05:00,83.2,78.9,29.92,SSW,213,11.0,12.0,87,0.00,,,0.00,Wunderground v.1.15,2013-09-02 06:05:00,
2013-09-02 02:10:00,83.2,78.9,29.92,SW,223,10.0,12.0,87,0.00,,,0.00,Wunderground v.1.15,2013-09-02 06:10:00,
2013-09-02 02:20:00,83.2,78.9,29.92,WSW,246,10.0,12.0,87,0.00,,,0.00,Wunderground v.1.15,2013-09-02 06:20:00,
2013-09-02 02:25:00,83.2,78.9,29.92,SW,217,10.0,12.0,87,0.00,,,0.00,Wunderground v.1.15,2013-09-02 06:25:00,
2013-09-02 02:30:00,83.3,79.4,29.92,WSW,240,10.0,10.0,88,0.00,,,0.00,Wunderground v.1.15,2013-09-02 06:30:00,
2013-09-02 02:35:00,83.2,78.9,29.92,SSW,205,10.0,15.0,87,0.00,,,0.00,Wunderground v.1.15,2013-09-02 06:35:00,
2013-09-02 02:40:00,83.2,78.9,29.92,SSW,209,10.0,10.0,87,0.00,,,0.00,Wunderground v.1.15,2013-09-02 06:40:00,
2013-09-02 02:45:00,83.2,78.9,29.92,SW,221,10.0,11.0,87,0.00,,,0.00,Wunderground v.1.15,2013-09-02 06:45:00,
2013-09-02 02:50:00,83.2,78.9,29.92,WSW,238,10.0,10.0,87,0.00,,,0.00,Wunderground v.1.15,2013-09-02 06:50:00,
2013-09-02 02:55:00,83.1,78.8,29.92,SSW,211,11.0,11.0,87,0.00,,,0.00,Wunderground v.1.15,2013-09-02 06:55:00,
2013-09-02 03:05:00,83.2,78.9,29.92,SW,218,11.0,12.0,87,0.00,,,0.00,Wunderground v.1.15,2013-09-02 07:05:00,
2013-09-02 03:10:00,83.3,79.4,29.92,SSW,209,11.0,11.0,88,0.00,,,0.00,Wunderground v.1.15,2013-09-02 07:10:00,
2013-09-02 03:15:00,83.2,79.6,29.92,SW,217,10.0,13.0,89,0.00,,,0.00,Wunderground v.1.15,2013-09-02 07:15:00,
2013-09-02 03:20:00,83.2,79.6,29.92,SW,228,10.0,10.0,89,0.00,,,0.00,Wunderground v.1.15,2013-09-02 07:20:00,
2013-09-02 03:25:00,82.9,78.6,29.92,SW,235,9.0,11.0,87,0.00,,,0.00,Wunderground v.1.15,2013-09-02 07:25:00,
2013-09-02 03:35:00,83.0,78.7,29.92,WSW,243,9.0,11.0,87,0.00,,,0.00,Wunderground v.1.15,2013-09-02 07:35:00,
2013-09-02 03:40:00,83.0,78.4,29.92,SW,236,9.0,11.0,86,0.00,,,0.00,Wunderground v.1.15,2013-09-02 07:40:00,
2013-09-02 03:45:00,83.0,78.4,29.92,WSW,246,9.0,11.0,86,0.00,,,0.00,Wunderground v.1.15,2013-09-02 07:45:00,
2013-09-02 03:55:00,83.0,78.4,29.91,WSW,248,10.0,11.0,86,0.00,,,0.00,Wunderground v.1.15,2013-09-02 07:55:00,
2013-09-02 04:00:00,83.0,78.4,29.91,WSW,245,9.0,11.0,86,0.00,,,0.00,Wunderground v.1.15,2013-09-02 08:00:00,
2013-09-02 04:05:00,83.0,78.4,29.91,SW,233,9.0,11.0,86,0.00,,,0.00,Wunderground v.1.15,2013-09-02 08:05:00,
2013-09-02 04:10:00,82.9,77.9,29.91,WSW,242,9.0,9.0,85,0.00,,,0.00,Wunderground v.1.15,2013-09-02 08:10:00,
2013-09-02 04:15:00,82.9,77.9,29.91,SW,224,9.0,11.0,85,0.00,,,0.00,Wunderground v.1.15,2013-09-02 08:15:00,
2013-09-02 04:20:00,82.9,77.9,29.91,WSW,251,9.0,11.0,85,0.00,,,0.00,Wunderground v.1.15,2013-09-02 08:20:00,
2013-09-02 04:30:00,83.0,78.4,29.91,SW,229,9.0,9.0,86,0.00,,,0.00,Wunderground v.1.15,2013-09-02 08:30:00,
2013-09-02 04:35:00,82.9,78.6,29.91,WSW,252,8.0,11.0,87,0.00,,,0.00,Wunderground v.1.15,2013-09-02 08:35:00,
2013-09-02 04:40:00,82.8,78.5,29.91,West,261,8.0,8.0,87,0.00,,,0.00,Wunderground v.1.15,2013-09-02 08:40:00,
2013-09-02 04:45:00,82.8,78.2,29.90,West,259,9.0,9.0,86,0.00,,,0.00,Wunderground v.1.15,2013-09-02 08:45:00,
2013-09-02 04:50:00,82.7,78.1,29.91,WSW,253,9.0,9.0,86,0.00,,,0.00,Wunderground v.1.15,2013-09-02 08:50:00,
2013-09-02 04:55:00,82.8,78.2,29.91,West,271,8.0,11.0,86,0.00,,,0.00,Wunderground v.1.15,2013-09-02 08:55:00,
2013-09-02 05:05:00,82.7,78.1,29.91,West,277,8.0,11.0,86,0.00,,,0.00,Wunderground v.1.15,2013-09-02 09:05:00,
2013-09-02 05:10:00,82.7,78.1,29.91,West,259,8.0,8.0,86,0.00,,,0.00,Wunderground v.1.15,2013-09-02 09:10:00,
2013-09-02 05:15:00,82.7,78.1,29.91,West,263,8.0,11.0,86,0.00,,,0.00,Wunderground v.1.15,2013-09-02 09:15:00,
2013-09-02 05:20:00,82.7,78.1,29.91,West,273,9.0,9.0,86,0.00,,,0.00,Wunderground v.1.15,2013-09-02 09:20:00,
2013-09-02 05:25:00,82.6,78.0,29.91,WSW,248,9.0,11.0,86,0.00,,,0.00,Wunderground v.1.15,2013-09-02 09:25:00,
2013-09-02 05:30:00,82.5,77.9,29.91,West,264,9.0,9.0,86,0.00,,,0.00,Wunderground v.1.15,2013-09-02 09:30:00,
2013-09-02 05:35:00,82.5,77.9,29.91,West,274,9.0,11.0,86,0.00,,,0.00,Wunderground v.1.15,2013-09-02 09:35:00,
2013-09-02 05:40:00,82.6,78.0,29.91,West,260,9.0,9.0,86,0.00,,,0.00,Wunderground v.1.15,2013-09-02 09:40:00,
2013-09-02 05:50:00,82.6,78.0,29.91,West,262,8.0,8.0,86,0.00,,,0.00,Wunderground v.1.15,2013-09-02 09:50:00,
2013-09-02 05:55:00,82.5,77.9,29.91,West,277,7.0,11.0,86,0.00,,,0.00,Wunderground v.1.15,2013-09-02 09:55:00,
2013-09-02 06:00:00,82.5,78.2,29.91,West,273,7.0,11.0,87,0.00,,,0.00,Wunderground v.1.15,2013-09-02 10:00:00,
2013-09-02 06:05:00,82.3,78.0,29.91,West,277,7.0,11.0,87,0.00,,,0.00,Wunderground v.1.15,2013-09-02 10:05:00,
2013-09-02 06:10:00,82.2,77.6,29.91,West,275,8.0,8.0,86,0.00,,,0.00,Wunderground v.1.15,2013-09-02 10:10:00,
2013-09-02 06:15:00,82.2,77.6,29.91,West,278,9.0,12.0,86,0.00,,,0.00,Wunderground v.1.15,2013-09-02 10:15:00,
2013-09-02 06:20:00,82.3,77.7,29.91,WNW,284,9.0,9.0,86,0.00,,,0.00,Wunderground v.1.15,2013-09-02 10:20:00,
2013-09-02 06:30:00,82.2,77.6,29.91,WNW,292,8.0,11.0,86,0.00,,,0.00,Wunderground v.1.15,2013-09-02 10:30:00,
2013-09-02 06:35:00,82.2,77.6,29.92,WNW,284,9.0,11.0,86,0.00,,,0.00,Wunderground v.1.15,2013-09-02 10:35:00,
2013-09-02 06:40:00,82.3,78.0,29.91,WNW,293,9.0,9.0,87,0.00,,,0.00,Wunderground v.1.15,2013-09-02 10:40:00,
2013-09-02 06:45:00,82.3,78.0,29.91,West,260,8.0,11.0,87,0.00,,,0.00,Wunderground v.1.15,2013-09-02 10:45:00,
2013-09-02 06:50:00,82.2,77.9,29.91,WSW,252,8.0,8.0,87,0.00,,,0.00,Wunderground v.1.15,2013-09-02 10:50:00,
2013-09-02 06:55:00,82.3,78.4,29.92,West,270,8.0,11.0,88,0.00,,,0.00,Wunderground v.1.15,2013-09-02 10:55:00,
2013-09-02 07:05:00,82.3,78.4,29.92,West,263,8.0,11.0,88,0.00,,,0.00,Wunderground v.1.15,2013-09-02 11:05:00,
2013-09-02 07:10:00,82.1,78.2,29.92,West,259,8.0,8.0,88,0.00,,,0.00,Wunderground v.1.15,2013-09-02 11:10:00,
2013-09-02 07:15:00,82.3,78.4,29.92,WSW,254,8.0,11.0,88,0.00,,,0.00,Wunderground v.1.15,2013-09-02 11:15:00,
2013-09-02 07:20:00,82.3,78.4,29.92,West,269,8.0,11.0,88,0.00,,,0.00,Wunderground v.1.15,2013-09-02 11:20:00,
2013-09-02 07:25:00,82.3,78.4,29.92,WSW,254,8.0,11.0,88,0.00,,,0.00,Wunderground v.1.15,2013-09-02 11:25:00,
2013-09-02 07:30:00,82.3,78.4,29.92,West,271,7.0,11.0,88,0.00,,,0.00,Wunderground v.1.15,2013-09-02 11:30:00,
2013-09-02 07:40:00,82.3,78.4,29.93,West,267,7.0,7.0,88,0.00,,,0.00,Wunderground v.1.15,2013-09-02 11:40:00,
2013-09-02 07:45:00,82.4,78.5,29.93,West,273,7.0,9.0,88,0.00,,,0.00,Wunderground v.1.15,2013-09-02 11:45:00,
2013-09-02 07:50:00,82.5,78.6,29.93,WNW,284,7.0,7.0,88,0.00,,,0.00,Wunderground v.1.15,2013-09-02 11:50:00,
2013-09-02 07:55:00,82.6,78.7,29.93,West,259,7.0,9.0,88,0.00,,,0.00,Wunderground v.1.15,2013-09-02 11:55:00,
2013-09-02 08:00:00,82.7,78.8,29.93,West,268,7.0,7.0,88,0.00,,,0.00,Wunderground v.1.15,2013-09-02 12:00:00,
2013-09-02 08:10:00,83.0,78.7,29.93,West,273,6.0,11.0,87,0.00,,,0.00,Wunderground v.1.15,2013-09-02 12:10:00,
2013-09-02 08:15:00,82.9,78.3,29.93,WSW,255,8.0,11.0,86,0.00,,,0.00,Wunderground v.1.15,2013-09-02 12:15:00,
2013-09-02 08:20:00,83.0,78.4,29.94,West,269,8.0,8.0,86,0.00,,,0.00,Wunderground v.1.15,2013-09-02 12:20:00,
2013-09-02 08:25:00,83.2,78.6,29.94,WNW,290,6.0,11.0,86,0.00,,,0.00,Wunderground v.1.15,2013-09-02 12:25:00,
2013-09-02 08:30:00,83.6,78.6,29.94,WNW,294,7.0,11.0,85,0.00,,,0.00,Wunderground v.1.15,2013-09-02 12:30:00,
2013-09-02 08:35:00,84.0,79.4,29.94,WNW,288,7.0,11.0,86,0.00,,,0.00,Wunderground v.1.15,2013-09-02 12:35:00,
2013-09-02 08:40:00,83.9,78.9,29.94,WNW,291,8.0,11.0,85,0.00,,,0.00,Wunderground v.1.15,2013-09-02 12:40:00,
2013-09-02 08:50:00,84.3,79.3,29.94,West,278,10.0,12.0,85,0.00,,,0.00,Wunderground v.1.15,2013-09-02 12:50:00,
2013-09-02 08:55:00,84.4,79.0,29.94,West,261,9.0,12.0,84,0.00,,,0.00,Wunderground v.1.15,2013-09-02 12:55:00,
2013-09-02 09:00:00,84.5,79.1,29.95,WNW,282,9.0,11.0,84,0.00,,,0.00,Wunderground v.1.15,2013-09-02 13:00:00,
2013-09-02 09:05:00,84.8,79.8,29.95,WNW,284,8.0,11.0,85,0.00,,,0.00,Wunderground v.1.15,2013-09-02 13:05:00,
2013-09-02 09:10:00,85.2,79.8,29.95,West,265,9.0,12.0,84,0.00,,,0.00,Wunderground v.1.15,2013-09-02 13:10:00,
2013-09-02 09:15:00,85.2,79.4,29.95,WNW,290,11.0,12.0,83,0.00,,,0.00,Wunderground v.1.15,2013-09-02 13:15:00,
2013-09-02 09:25:00,85.6,79.8,29.96,WNW,296,10.0,11.0,83,0.00,,,0.00,Wunderground v.1.15,2013-09-02 13:25:00,
2013-09-02 09:30:00,86.0,80.2,29.96,West,277,10.0,11.0,83,0.00,,,0.00,Wunderground v.1.15,2013-09-02 13:30:00,
2013-09-02 09:35:00,85.8,80.0,29.96,NW,305,9.0,11.0,83,0.00,,,0.00,Wunderground v.1.15,2013-09-02 13:35:00,
2013-09-02 09:40:00,85.3,79.5,29.96,WNW,302,9.0,9.0,83,0.00,,,0.00,Wunderground v.1.15,2013-09-02 13:40:00,
2013-09-02 09:45:00,84.9,79.2,29.96,West,281,9.0,11.0,83,0.00,,,0.00,Wunderground v.1.15,2013-09-02 13:45:00,
2013-09-02 09:55:00,85.1,79.0,29.96,NW,309,10.0,12.0,82,0.00,,,0.00,Wunderground v.1.15,2013-09-02 13:55:00,
2013-09-02 10:00:00,85.6,79.5,29.96,WNW,298,10.0,12.0,82,0.00,,,0.00,Wunderground v.1.15,2013-09-02 14:00:00,
2013-09-02 10:05:00,86.1,80.3,29.96,WNW,303,10.0,12.0,83,0.00,,,0.00,Wunderground v.1.15,2013-09-02 14:05:00,
2013-09-02 10:10:00,86.3,80.2,29.97,NW,326,10.0,10.0,82,0.00,,,0.00,Wunderground v.1.15,2013-09-02 14:10:00,
2013-09-02 10:15:00,86.5,80.7,29.97,WNW,294,10.0,11.0,83,0.00,,,0.00,Wunderground v.1.15,2013-09-02 14:15:00,
2013-09-02 10:20:00,86.6,80.8,29.98,WNW,297,9.0,12.0,83,0.00,,,0.00,Wunderground v.1.15,2013-09-02 14:20:00,
2013-09-02 10:30:00,86.3,79.8,29.97,NW,311,9.0,9.0,81,0.00,,,0.00,Wunderground v.1.15,2013-09-02 14:30:00,
2013-09-02 10:35:00,86.0,79.9,29.97,WNW,300,9.0,11.0,82,0.00,,,0.00,Wunderground v.1.15,2013-09-02 14:35:00,
2013-09-02 10:40:00,85.5,79.4,29.97,NW,313,9.0,9.0,82,0.00,,,0.00,Wunderground v.1.15,2013-09-02 14:40:00,
2013-09-02 10:50:00,84.8,79.1,29.97,NW,319,10.0,10.0,83,0.00,,,0.00,Wunderground v.1.15,2013-09-02 14:50:00,
2013-09-02 10:55:00,84.8,79.4,29.98,WNW,288,9.0,11.0,84,0.00,,,0.00,Wunderground v.1.15,2013-09-02 14:55:00,
2013-09-02 11:05:00,85.0,79.3,29.99,WNW,298,5.0,11.0,83,0.00,,,0.00,Wunderground v.1.15,2013-09-02 15:05:00,
2013-09-02 11:10:00,84.9,79.2,30.00,WNW,298,1.0,1.0,83,0.00,,,0.00,Wunderground v.1.15,2013-09-02 15:10:00,
2013-09-02 11:20:00,84.7,79.0,30.00,WNW,291,0.0,11.0,83,0.00,,,0.00,Wunderground v.1.15,2013-09-02 15:20:00,
2013-09-02 11:25:00,84.7,79.0,30.00,WNW,302,0.0,11.0,83,0.00,,,0.00,Wunderground v.1.15,2013-09-02 15:25:00,
2013-09-02 11:35:00,85.3,79.9,29.99,West,274,0.0,11.0,84,0.00,,,0.00,Wunderground v.1.15,2013-09-02 15:35:00,
2013-09-02 11:40:00,85.8,80.0,29.99,West,279,0.0,11.0,83,0.00,,,0.00,Wunderground v.1.15,2013-09-02 15:40:00,
2013-09-02 11:50:00,86.6,80.4,29.99,West,272,1.0,1.0,82,0.00,,,0.00,Wunderground v.1.15,2013-09-02 15:50:00,
2013-09-02 11:55:00,87.5,80.6,29.99,WNW,298,1.0,11.0,80,0.00,,,0.00,Wunderground v.1.15,2013-09-02 15:55:00,
2013-09-02 12:05:00,87.5,79.0,29.99,South,171,0.0,8.0,76,0.00,,,0.00,Wunderground v.1.15,2013-09-02 16:05:00,
2013-09-02 12:10:00,85.4,78.5,29.99,SSE,167,3.0,11.0,80,0.00,,,0.00,Wunderground v.1.15,2013-09-02 16:10:00,
2013-09-02 12:20:00,85.0,78.9,29.99,South,182,4.0,4.0,82,0.00,,,0.00,Wunderground v.1.15,2013-09-02 16:20:00,
2013-09-02 12:25:00,84.8,78.7,29.99,SSW,213,1.0,11.0,82,0.00,,,0.00,Wunderground v.1.15,2013-09-02 16:25:00,
2013-09-02 12:35:00,84.8,78.3,29.99,South,179,4.0,11.0,81,0.00,,,0.00,Wunderground v.1.15,2013-09-02 16:35:00,
2013-09-02 12:40:00,84.5,78.4,29.99,SSW,207,5.0,5.0,82,0.00,,,0.00,Wunderground v.1.15,2013-09-02 16:40:00,
2013-09-02 12:50:00,85.5,80.1,29.98,SW,223,2.0,2.0,84,0.00,,,0.00,Wunderground v.1.15,2013-09-02 16:50:00,
2013-09-02 12:55:00,86.0,79.5,29.98,NW,315,2.0,11.0,81,0.00,,,0.00,Wunderground v.1.15,2013-09-02 16:55:00,
2013-09-02 13:00:00,87.4,80.1,29.98,WNW,286,3.0,11.0,79,0.00,,,0.00,Wunderground v.1.15,2013-09-02 17:00:00,
2013-09-02 13:10:00,89.8,80.4,29.98,West,269,5.0,5.0,74,0.00,,,0.00,Wunderground v.1.15,2013-09-02 17:10:00,
2013-09-02 13:15:00,89.4,79.6,29.98,WSW,252,6.0,6.0,73,0.00,,,0.00,Wunderground v.1.15,2013-09-02 17:15:00,
2013-09-02 13:25:00,88.5,80.0,29.97,SW,234,5.0,11.0,76,0.00,,,0.00,Wunderground v.1.15,2013-09-02 17:25:00,
2013-09-02 13:30:00,88.5,80.0,29.97,West,273,5.0,5.0,76,0.00,,,0.00,Wunderground v.1.15,2013-09-02 17:30:00,
2013-09-02 13:40:00,89.5,79.3,29.97,WNW,286,5.0,11.0,72,0.00,,,0.00,Wunderground v.1.15,2013-09-02 17:40:00,
2013-09-02 13:45:00,89.7,78.6,29.97,West,271,7.0,11.0,70,0.00,,,0.00,Wunderground v.1.15,2013-09-02 17:45:00,
2013-09-02 13:50:00,89.3,78.2,29.97,WSW,243,7.0,11.0,70,0.00,,,0.00,Wunderground v.1.15,2013-09-02 17:50:00,
2013-09-02 14:00:00,89.0,78.8,29.96,WSW,250,8.0,8.0,72,0.00,,,0.00,Wunderground v.1.15,2013-09-02 18:00:00,
2013-09-02 14:05:00,88.9,78.7,29.96,WSW,258,9.0,9.0,72,0.00,,,0.00,Wunderground v.1.15,2013-09-02 18:05:00,
2013-09-02 14:10:00,88.7,78.1,29.96,SW,214,9.0,9.0,71,0.00,,,0.00,Wunderground v.1.15,2013-09-02 18:10:00,
2013-09-02 14:20:00,88.4,78.6,29.95,West,273,9.0,11.0,73,0.00,,,0.00,Wunderground v.1.15,2013-09-02 18:20:00,
2013-09-02 14:25:00,88.5,78.3,29.95,West,264,9.0,11.0,72,0.00,,,0.00,Wunderground v.1.15,2013-09-02 18:25:00,
2013-09-02 14:35:00,88.5,78.7,29.94,WSW,252,10.0,11.0,73,0.00,,,0.00,Wunderground v.1.15,2013-09-02 18:35:00,
2013-09-02 14:40:00,88.5,79.1,29.94,West,268,10.0,10.0,74,0.00,,,0.00,Wunderground v.1.15,2013-09-02 18:40:00,
2013-09-02 14:50:00,88.6,80.1,29.94,SW,236,9.0,9.0,76,0.00,,,0.00,Wunderground v.1.15,2013-09-02 18:50:00,
2013-09-02 14:55:00,88.2,79.7,29.93,WNW,287,10.0,10.0,76,0.00,,,0.00,Wunderground v.1.15,2013-09-02 18:55:00,
2013-09-02 15:05:00,87.8,79.3,29.94,SW,234,10.0,11.0,76,0.00,,,0.00,Wunderground v.1.15,2013-09-02 19:05:00,
2013-09-02 15:10:00,87.8,79.7,29.93,WSW,247,10.0,10.0,77,0.00,,,0.00,Wunderground v.1.15,2013-09-02 19:10:00,
2013-09-02 15:20:00,88.5,79.6,29.92,West,265,8.0,11.0,75,0.00,,,0.00,Wunderground v.1.15,2013-09-02 19:20:00,
2013-09-02 15:25:00,88.8,79.0,29.92,WNW,284,8.0,11.0,73,0.00,,,0.00,Wunderground v.1.15,2013-09-02 19:25:00,
2013-09-02 15:35:00,88.8,78.6,29.91,SW,236,9.0,11.0,72,0.00,,,0.00,Wunderground v.1.15,2013-09-02 19:35:00,
2013-09-02 15:40:00,88.7,78.9,29.91,WSW,244,9.0,11.0,73,0.00,,,0.00,Wunderground v.1.15,2013-09-02 19:40:00,
2013-09-02 15:50:00,88.6,78.4,29.91,WSW,240,10.0,12.0,72,0.00,,,0.00,Wunderground v.1.15,2013-09-02 19:50:00,
2013-09-02 15:55:00,88.8,78.6,29.91,WSW,258,9.0,12.0,72,0.00,,,0.00,Wunderground v.1.15,2013-09-02 19:55:00,
2013-09-02 16:05:00,88.4,77.8,29.90,WSW,243,9.0,10.0,71,0.00,,,0.00,Wunderground v.1.15,2013-09-02 20:05:00,
2013-09-02 16:10:00,88.3,79.0,29.90,SW,229,8.0,11.0,74,0.00,,,0.00,Wunderground v.1.15,2013-09-02 20:10:00,
2013-09-02 16:20:00,87.9,77.7,29.89,SW,233,7.0,12.0,72,0.00,,,0.00,Wunderground v.1.15,2013-09-02 20:20:00,
2013-09-02 16:25:00,88.0,78.3,29.89,SW,232,9.0,12.0,73,0.00,,,0.00,Wunderground v.1.15,2013-09-02 20:25:00,
2013-09-02 16:35:00,88.1,77.9,29.89,SW,236,9.0,11.0,72,0.00,,,0.00,Wunderground v.1.15,2013-09-02 20:35:00,
2013-09-02 16:40:00,87.7,78.0,29.90,WSW,254,8.0,8.0,73,0.00,,,0.00,Wunderground v.1.15,2013-09-02 20:40:00,
2013-09-02 16:50:00,87.9,78.2,29.90,WSW,254,7.0,7.0,73,0.00,,,0.00,Wunderground v.1.15,2013-09-02 20:50:00,
2013-09-02 16:55:00,88.0,77.4,29.90,WSW,247,7.0,8.0,71,0.00,,,0.00,Wunderground v.1.15,2013-09-02 20:55:00,
2013-09-02 17:05:00,88.3,77.7,29.90,WSW,254,8.0,11.0,71,0.00,,,0.00,Wunderground v.1.15,2013-09-02 21:05:00,
2013-09-02 17:10:00,88.1,77.9,29.90,SSW,209,8.0,12.0,72,0.00,,,0.00,Wunderground v.1.15,2013-09-02 21:10:00,
2013-09-02 17:20:00,87.8,77.6,29.90,SW,234,7.0,11.0,72,0.00,,,0.00,Wunderground v.1.15,2013-09-02 21:20:00,
2013-09-02 17:25:00,87.5,77.4,29.90,SW,215,8.0,11.0,72,0.00,,,0.00,Wunderground v.1.15,2013-09-02 21:25:00,
2013-09-02 17:35:00,87.8,78.1,29.89,SSW,207,7.0,11.0,73,0.00,,,0.00,Wunderground v.1.15,2013-09-02 21:35:00,
2013-09-02 17:40:00,87.4,77.3,29.89,SSW,198,7.0,11.0,72,0.00,,,0.00,Wunderground v.1.15,2013-09-02 21:40:00,
2013-09-02 17:50:00,87.3,77.6,29.89,SW,228,8.0,11.0,73,0.00,,,0.00,Wunderground v.1.15,2013-09-02 21:50:00,
2013-09-02 17:55:00,87.3,78.0,29.89,SSW,205,7.0,11.0,74,0.00,,,0.00,Wunderground v.1.15,2013-09-02 21:55:00,
2013-09-02 18:05:00,86.9,78.0,29.89,SSW,194,7.0,11.0,75,0.00,,,0.00,Wunderground v.1.15,2013-09-02 22:05:00,
2013-09-02 18:10:00,86.7,77.8,29.89,SW,218,7.0,11.0,75,0.00,,,0.00,Wunderground v.1.15,2013-09-02 22:10:00,
2013-09-02 18:20:00,86.5,78.0,29.90,SW,220,9.0,9.0,76,0.00,,,0.00,Wunderground v.1.15,2013-09-02 22:20:00,
2013-09-02 18:25:00,86.4,78.3,29.90,SSW,200,9.0,11.0,77,0.00,,,0.00,Wunderground v.1.15,2013-09-02 22:25:00,
2013-09-02 18:35:00,86.2,78.1,29.90,SSW,213,9.0,11.0,77,0.00,,,0.00,Wunderground v.1.15,2013-09-02 22:35:00,
2013-09-02 18:40:00,85.9,78.2,29.89,SW,221,9.0,9.0,78,0.00,,,0.00,Wunderground v.1.15,2013-09-02 22:40:00,
2013-09-02 18:45:00,85.5,77.9,29.90,South,191,8.0,11.0,78,0.00,,,0.00,Wunderground v.1.15,2013-09-02 22:45:00,
2013-09-02 18:55:00,85.0,77.8,29.90,SSW,202,7.0,11.0,79,0.00,,,0.00,Wunderground v.1.15,2013-09-02 22:55:00,
2013-09-02 19:05:00,84.7,78.2,29.90,SSW,213,7.0,8.0,81,0.00,,,0.00,Wunderground v.1.15,2013-09-02 23:05:00,
2013-09-02 19:10:00,84.6,77.7,29.90,SW,215,7.0,11.0,80,0.00,,,0.00,Wunderground v.1.15,2013-09-02 23:10:00,
2013-09-02 19:20:00,84.5,78.4,29.90,SSW,196,8.0,11.0,82,0.00,,,0.00,Wunderground v.1.15,2013-09-02 23:20:00,
2013-09-02 19:25:00,84.4,78.3,29.90,SW,217,7.0,11.0,82,0.00,,,0.00,Wunderground v.1.15,2013-09-02 23:25:00,
2013-09-02 19:35:00,84.3,78.2,29.90,SW,225,7.0,7.0,82,0.00,,,0.00,Wunderground v.1.15,2013-09-02 23:35:00,
2013-09-02 19:40:00,84.2,78.1,29.90,SSW,208,7.0,7.0,82,0.00,,,0.00,Wunderground v.1.15,2013-09-02 23:40:00,
2013-09-02 19:50:00,84.2,78.5,29.90,South,189,9.0,9.0,83,0.00,,,0.00,Wunderground v.1.15,2013-09-02 23:50:00,
2013-09-02 19:55:00,84.2,78.5,29.90,SSW,198,10.0,15.0,83,0.00,,,0.00,Wunderground v.1.15,2013-09-02 23:55:00,
2013-09-02 20:05:00,84.1,78.7,29.90,SSW,196,10.0,11.0,84,0.00,,,0.00,Wunderground v.1.15,2013-09-03 00:05:00,
2013-09-02 20:10:00,84.0,78.6,29.90,SW,215,10.0,10.0,84,0.00,,,0.00,Wunderground v.1.15,2013-09-03 00:10:00,
2013-09-02 20:20:00,83.8,78.8,29.90,SW,214,11.0,11.0,85,0.00,,,0.00,Wunderground v.1.15,2013-09-03 00:20:00,
2013-09-02 20:25:00,83.7,78.7,29.90,SSW,211,10.0,11.0,85,0.00,,,0.00,Wunderground v.1.15,2013-09-03 00:25:00,
2013-09-02 20:35:00,83.5,78.5,29.90,SSW,199,10.0,11.0,85,0.00,,,0.00,Wunderground v.1.15,2013-09-03 00:35:00,
2013-09-02 20:40:00,83.4,78.4,29.89,SW,215,10.0,11.0,85,0.00,,,0.00,Wunderground v.1.15,2013-09-03 00:40:00,
2013-09-02 20:50:00,83.3,78.3,29.90,South,188,10.0,10.0,85,0.00,,,0.00,Wunderground v.1.15,2013-09-03 00:50:00,
2013-09-02 20:55:00,83.3,78.3,29.90,SSW,199,10.0,11.0,85,0.00,,,0.00,Wunderground v.1.15,2013-09-03 00:55:00,
2013-09-02 21:05:00,83.1,78.1,29.90,SSW,197,10.0,12.0,85,0.00,,,0.00,Wunderground v.1.15,2013-09-03 01:05:00,
2013-09-02 21:10:00,83.2,78.2,29.90,SSW,206,9.0,9.0,85,0.00,,,0.00,Wunderground v.1.15,2013-09-03 01:10:00,
2013-09-02 21:20:00,83.2,78.2,29.90,SSW,212,9.0,9.0,85,0.00,,,0.00,Wunderground v.1.15,2013-09-03 01:20:00,
2013-09-02 21:25:00,83.2,78.2,29.90,SSW,199,10.0,10.0,85,0.00,,,0.00,Wunderground v.1.15,2013-09-03 01:25:00,
2013-09-02 21:35:00,83.3,78.7,29.90,SW,214,10.0,13.0,86,0.00,,,0.00,Wunderground v.1.15,2013-09-03 01:35:00,
2013-09-02 21:40:00,83.2,78.2,29.91,SSW,196,12.0,12.0,85,0.00,,,0.00,Wunderground v.1.15,2013-09-03 01:40:00,
2013-09-02 21:50:00,83.3,78.3,29.91,SW,227,10.0,10.0,85,0.00,,,0.00,Wunderground v.1.15,2013-09-03 01:50:00,
2013-09-02 21:55:00,83.3,78.7,29.91,SSW,212,8.0,11.0,86,0.00,,,0.00,Wunderground v.1.15,2013-09-03 01:55:00,
2013-09-02 22:05:00,83.2,78.2,29.91,SSW,211,9.0,11.0,85,0.00,,,0.00,Wunderground v.1.15,2013-09-03 02:05:00,
2013-09-02 22:10:00,83.2,78.2,29.92,SW,229,9.0,11.0,85,0.00,,,0.00,Wunderground v.1.15,2013-09-03 02:10:00,
2013-09-02 22:20:00,83.2,78.2,29.92,SW,225,9.0,9.0,85,0.00,,,0.00,Wunderground v.1.15,2013-09-03 02:20:00,
2013-09-02 22:30:00,83.2,78.6,29.92,SSW,208,9.0,9.0,86,0.00,,,0.00,Wunderground v.1.15,2013-09-03 02:30:00,
2013-09-02 22:35:00,83.1,78.1,29.93,SW,215,8.0,11.0,85,0.00,,,0.00,Wunderground v.1.15,2013-09-03 02:35:00,
2013-09-02 22:45:00,83.3,77.6,29.92,SW,221,8.0,11.0,83,0.00,,,0.00,Wunderground v.1.15,2013-09-03 02:45:00,
2013-09-02 22:50:00,83.4,78.1,29.92,SW,216,8.0,11.0,84,0.00,,,0.00,Wunderground v.1.15,2013-09-03 02:50:00,
2013-09-02 23:00:00,83.4,78.4,29.93,WSW,246,8.0,8.0,85,0.00,,,0.00,Wunderground v.1.15,2013-09-03 03:00:00,
2013-09-02 23:10:00,83.3,78.3,29.93,SW,229,8.0,8.0,85,0.00,,,0.00,Wunderground v.1.15,2013-09-03 03:10:00,
2013-09-02 23:15:00,83.3,78.3,29.93,SW,219,8.0,11.0,85,0.00,,,0.00,Wunderground v.1.15,2013-09-03 03:15:00,
2013-09-02 23:20:00,83.3,78.7,29.93,SW,223,8.0,12.0,86,0.00,,,0.00,Wunderground v.1.15,2013-09-03 03:20:00,
2013-09-02 23:30:00,83.3,78.7,29.93,WSW,257,9.0,9.0,86,0.00,,,0.00,Wunderground v.1.15,2013-09-03 03:30:00,
2013-09-02 23:35:00,83.2,78.6,29.93,SW,236,7.0,11.0,86,0.00,,,0.00,Wunderground v.1.15,2013-09-03 03:35:00,
2013-09-02 23:45:00,83.1,78.1,29.92,WSW,240,7.0,11.0,85,0.00,,,0.00,Wunderground v.1.15,2013-09-03 03:45:00,
2013-09-02 23:50:00,83.0,78.0,29.93,WSW,246,7.0,11.0,85,0.00,,,0.00,Wunderground v.1.15,2013-09-03 03:50:00,